NOAA 16 DEB

Satellite information

Favourite Embed

Satellite Type and Status

DEBRISIN ORBIT

Key statistics

Satellite NOAA 16 DEB at a glance.

Uptime

9156

Days in orbit

Revolutions

≈ 14.2

Per day

Orbit

SSO

Sun Synchronous Orbit

Inclination

98.7

Latest

Satellite identification and parameters

Extended collection of information and parameters for NOAA 16 DEB.

Object identification

Identified? True

Debris? True

Object name: NOAA 16 DEB

International designator: 2000-055KP

Object number (NORAD): 41410

Object ID (CCSDS): 41410

Country: UNITED STATES OF AMERICA (US)

Current information (Y/N): Y

RCS size: SMALL

Orbital parameters

Period: 101.485 minutes

Inclination: 98.7122 deg

SMA: 7207.098 km

Apoapsis: 846.024 km

Periapsis: 811.902 km

RAAN: 329.3735 deg

Eccentricy: 0.00236724

Argument of periapsis: 185.2406 deg

Mean anomaly: 174.8526 deg

Mean motion: 14.18933877 rev/day

Mean motion (dot): 0.00004036 rev/day2

B* drag term: 0.001950845 1/REarth

Two-line elements (TLE)

Creation date: Oct. 16, 2025, 2:37 a.m.

Reference frame: TEME

Reference center: EARTH

Epoch: Oct. 15, 2025, 8:16 p.m. UTC

TLE line 0: 0 NOAA 16 DEB

TLE line 1: 1 41410U 00055KP 25288.84508006 .00004036 00000-0 19508-2 0 9994

TLE line 2: 2 41410 98.7122 329.3735 0023672 185.2406 174.8526 14.18933877497182

Live tracking on map

Real-time ground track for satellite NOAA 16 DEB.

In-orbit conjunctions

A list of the most updated potential collisions computed for object NOAA 16 DEB.

Target Orbit TCA Probability of collision Miss distance Type
CZ-6A DEB LEO 2025-03-30 05:19:46 0.0007301394 39.0 (m) DEBRIS
NOAA 16 SSO 2024-05-26 17:22:34 0.0001197683 653.0 (m) PAYLOAD

Associated space launch

The NOAA K, L and M POES satellites begin the fifth generation of improved environmental monitoring in support of NOAA missions. The instrument payload has significant improvements and additions/deletions. The instrument changes have effected the spacecraft subsystems and data formats.

NOAA 16 DEB was lifted into orbit during the mission ‘Titan II SLV | NOAA 16’, on board a Titan II SLV space rocket.

The launch took place on Sept. 21, 2000, 10:22 a.m. from Space Launch Complex 4W.

For more information about the launch, click the button.

Launch to space Titan II SLV | NOAA 16
Titan II SLV | NOAA 16

Agency: N/A

Status: Launch Successful

Launch date: Sept. 21, 2000, 10:22 a.m. UTC

Rocket: Titan II SLV

Launch pad: Space Launch Complex 4W

Location: Vandenberg SFB, CA, USA

...

Latest news about this satellite

There are no fresh news available about this satellite. Check back as we update our databases every day.


Newsletter sign-up

Weekly statistics, charts and insights to help you stay on top of the space industry.